Iron Mountain, MI

5:59 AM CDT on May 25, 2017 (GMT -0500)
Ford

Weather History for KIMT - October, 2011

Change the Weather History Date:

Wednesday, October 12, 2011

  Actual Average Record
Temperature  
Mean Temperature 58 °F -  
Max Temperature 69 °F 57 °F 78 °F (1947)
Min Temperature 48 °F 35 °F 16 °F (1936)
Degree Days  
Heating Degree Days 6    
Growing Degree Days 8 (Base 50)    
Moisture  
Dew Point 56 °F    
Average Humidity 93    
Maximum Humidity 100    
Minimum Humidity 65    
Precipitation  
Precipitation 0.00 in - - ()
Sea Level Pressure  
Sea Level Pressure 29.84 in    
Wind  
Wind Speed 3 mph (SE)    
Max Wind Speed 8 mph    
Max Gust Speed -    
Visibility 4 miles    
Events Fog , Rain    
Averages and records for this station are not official NWS values.
T = Trace of Precipitation, MM = Missing Value Source: NWS Daily Summary

Daily Weather History Graph

Daily Weather History Graph

Search for Another Location

Airport or City:

Trip Planner

Search our weather history database for the weather conditions in past years. The results will help you decide how hot, cold, wet, or windy it might be!

Date:

Astronomy

Oct. 12, 2011 Rise Set
Actual Time 7:04 AM CDT 6:12 PM CDT
Civil Twilight 6:34 AM CDT 6:42 PM CDT
Nautical Twilight 6:00 AM CDT 7:16 PM CDT
Astronomical Twilight 5:25 AM CDT 7:51 PM CDT
Moon 6:07 PM CDT (10/12) 7:44 AM CDT (10/12)
Length of Visible Light 12h 07m
Length of Day
11h 07m
Full, 100% of the Moon is Illuminated
Oct 12
Full
Oct 19
Last Quarter
Oct 26
New
Nov 2
First Quarter
Nov 10
Full

Hourly Weather History & Observations

Time (CDT) Temp. Dew Point Humidity Pressure Visibility Wind Dir Wind Speed Gust Speed Precip Events Conditions
12:20 AM 60.8 °F 57.2 °F 88% 29.91 in 7.0 mi South 8.1 mph - 0.00 in   Overcast
12:29 AM 60.8 °F 57.2 °F 88% 29.90 in 7.0 mi South 6.9 mph - 0.00 in Rain Light Rain
12:44 AM 60.8 °F 57.2 °F 88% 29.90 in 7.0 mi Calm Calm - 0.00 in   Overcast
12:54 AM 59.0 °F 57.9 °F 96% 29.90 in 7.0 mi Calm Calm - 0.00 in   Overcast
1:07 AM 57.2 °F 57.2 °F 100% 29.90 in 3.0 mi Calm Calm - N/A   Overcast
1:54 AM 59.0 °F 57.9 °F 96% 29.90 in 4.0 mi ESE 4.6 mph - 0.00 in   Overcast
2:11 AM 57.2 °F 57.2 °F 100% 29.90 in 3.0 mi Calm Calm - N/A   Overcast
2:42 AM 57.2 °F 57.2 °F 100% 29.89 in 2.0 mi SSE 3.5 mph - N/A   Overcast
2:49 AM 57.2 °F 57.2 °F 100% 29.89 in 1.0 mi SE 3.5 mph - N/A   Overcast
2:54 AM 57.9 °F 57.9 °F 100% 29.89 in 0.8 mi Calm Calm - N/A   Overcast
3:22 AM 57.2 °F 57.2 °F 100% 29.89 in 1.2 mi Calm Calm - N/A   Overcast
3:54 AM 57.9 °F 57.0 °F 97% 29.89 in 2.0 mi South 3.5 mph - N/A   Overcast
4:05 AM 57.2 °F 57.2 °F 100% 29.89 in 3.0 mi SSE 3.5 mph - N/A   Overcast
4:14 AM 57.2 °F 57.2 °F 100% 29.90 in 1.5 mi SE 6.9 mph - N/A   Overcast
4:22 AM 57.2 °F 57.2 °F 100% 29.89 in 0.2 mi SE 3.5 mph - N/A Fog Fog
4:54 AM 57.0 °F 57.0 °F 100% 29.90 in 0.2 mi Calm Calm - N/A Fog Fog
5:33 AM 57.2 °F 57.2 °F 100% 29.90 in 1.0 mi Calm Calm - N/A   Overcast
5:45 AM 57.2 °F 57.2 °F 100% 29.90 in 0.8 mi Calm Calm - N/A   Overcast
5:54 AM 57.9 °F 57.0 °F 97% 29.90 in 0.5 mi Calm Calm - N/A Fog Fog
6:54 AM 57.9 °F 57.9 °F 100% 29.90 in 0.8 mi Calm Calm - N/A   Overcast
7:54 AM 57.9 °F 57.9 °F 100% 29.89 in 0.8 mi Calm Calm - N/A   Overcast
8:28 AM 57.2 °F 57.2 °F 100% 29.88 in 1.0 mi Calm Calm - N/A   Overcast
8:43 AM 57.2 °F 57.2 °F 100% 29.88 in 3.0 mi Calm Calm - N/A   Overcast
8:54 AM 57.9 °F 57.9 °F 100% 29.88 in 3.0 mi Calm Calm - N/A   Overcast
10:54 AM 60.1 °F 57.9 °F 93% 29.87 in 1.8 mi SSE 4.6 mph - N/A   Overcast
11:54 AM 60.1 °F 57.9 °F 93% 29.86 in 1.8 mi SE 5.8 mph - N/A   Overcast
11:57 AM 60.8 °F 57.2 °F 88% 29.86 in 2.0 mi SE 4.6 mph - N/A   Overcast
12:12 PM 60.8 °F 57.2 °F 88% 29.86 in 3.0 mi SSE 5.8 mph - N/A   Overcast
12:54 PM 62.1 °F 57.9 °F 86% 29.85 in 4.0 mi Calm Calm - N/A   Overcast
2:44 PM 64.4 °F 57.2 °F 77% 29.79 in 5.0 mi Variable 3.5 mph - N/A   Haze
2:54 PM 64.0 °F 57.9 °F 80% 29.79 in 6.0 mi East 3.5 mph - N/A   Haze
4:54 PM 69.1 °F 57.9 °F 68% 29.75 in 10.0 mi ESE 3.5 mph - N/A   Clear
5:54 PM 66.0 °F 54.0 °F 65% 29.74 in 10.0 mi ESE 6.9 mph - N/A   Clear
6:54 PM 61.0 °F 53.1 °F 75% 29.75 in 10.0 mi ESE 3.5 mph - N/A   Clear
7:54 PM 57.9 °F 52.0 °F 81% 29.75 in 10.0 mi ESE 5.8 mph - N/A   Clear
8:54 PM 55.0 °F 51.1 °F 86% 29.73 in 8.0 mi SE 3.5 mph - N/A   Clear
9:54 PM 53.1 °F 50.0 °F 89% 29.73 in 7.0 mi Calm Calm - N/A   Clear
11:19 PM 48.2 °F 48.2 °F 100% 29.70 in 1.2 mi Calm Calm - N/A   Clear
11:26 PM 48.2 °F 48.2 °F 100% 29.70 in 0.5 mi Calm Calm - N/A Fog Fog
11:35 PM 48.2 °F 46.4 °F 93% 29.70 in 2.0 mi Calm Calm - N/A   Clear
11:51 PM 48.2 °F 46.4 °F 93% 29.69 in 3.0 mi Calm Calm - N/A   Clear
11:54 PM 48.0 °F 48.0 °F 100% 29.71 in 3.0 mi Calm Calm - N/A   Clear